Location: York
(31.8935°S, 116.7682°E)
Time: 19:15:21
(UTC+08:00)

deb Explorer IX - Pass Details

Date: 01 October 2022
Orbit: 533 x 1057 km, 38.8° (Epoch: 30 November)

Event Time Altitude Azimuth Distance (km) Brightness Sun altitude
Rises 16:31:50 0° 339° (NNW) 3,731 ? 20.9°
Reaches altitude 10° 16:35:22 10° 354° (N) 2,715 ? 20.2°
Maximum altitude 16:39:52 20° 38° (NE) 2,003 ? 19.2°
Drops below altitude 10° 16:44:02 10° 82° (E) 2,488 ? 18.4°
Sets 16:47:05 0° 99° (E) 3,323 ? 17.7°
